Retour au catalogue

STARLINK-11740

ActifCommunicationsVLEO
NORAD 64382·PAYLOAD·🇺🇸 United States

Lancé Jun 13, 2025 depuis Cape Canaveral Space Force Station

Loading…

Prochains Passages (prochaines 24 heures)

TLE

FraisSource: CelesTrak SupGP

Époque: Sep 15, 2026, 03:53 UTC

1 64382C 25127N   26258.16229167 -.00084223  00000+0 -65430-3 0  2586
2 64382  43.0009  22.1377 0001836 255.2437 154.8694 15.70874502    16

Suivez STARLINK-11740 en temps réel avec AllMySat

Download on the App Store